When you browse on this site, cookies collect data to enhance your experience and personalize the content and advertising you see.
Visit our Privacy Policy to learn more. By continuing to use the site, you agree to this use of cookies and data.
  • In Hungary
  • List of Countries
  • For 7 days
  • Water Temperature
  • Satellite Maps
  • Weather Map
  • News
  • Weather Widgets
  • user-avatar
    Login

    Hourly Weather Union City

    Today, 26 June, Wednesday

    Time Temperature Precipitation Wind Pressure Humidity
    00:00 +26°C° 0 mm 2 mps 760 mmHg 69%
    01:00 +26°C° 0 mm 3 mps 760 mmHg 69%
    02:00 +25°C° 0.1 mm 3 mps 760 mmHg 69%
    03:00 +25°C° 0.1 mm 3 mps 760 mmHg 69%
    04:00 +25°C° 0.1 mm 3 mps 761 mmHg 69%
    05:00 +25°C° 0 mm 3 mps 761 mmHg 66%
    06:00 +26°C° 0 mm 2 mps 762 mmHg 64%
    07:00 +26°C° 0 mm 2 mps 762 mmHg 61%
    08:00 +28°C° 0 mm 2 mps 762 mmHg 55%
    09:00 +29°C° 0 mm 1 mps 762 mmHg 48%
    10:00 +31°C° 0 mm 1 mps 762 mmHg 41%
    11:00 +32°C° 0 mm 1 mps 762 mmHg 37%
    12:00 +34°C° 0 mm 2 mps 762 mmHg 33%
    13:00 +35°C° 0 mm 2 mps 762 mmHg 28%
    14:00 +35°C° 0 mm 2 mps 762 mmHg 29%
    15:00 +35°C° 0 mm 2 mps 761 mmHg 30%
    16:00 +35°C° 0 mm 3 mps 761 mmHg 31%
    17:00 +34°C° 0 mm 3 mps 761 mmHg 36%
    18:00 +33°C° 0 mm 3 mps 762 mmHg 41%
    19:00 +31°C° 0 mm 3 mps 762 mmHg 46%
    20:00 +30°C° 0.1 mm 3 mps 762 mmHg 50%
    21:00 +29°C° 0.1 mm 2 mps 763 mmHg 54%
    22:00 +29°C° 0.1 mm 2 mps 763 mmHg 58%
    23:00 +28°C° 0 mm 2 mps 763 mmHg 59%

    Tomorrow, 27 June, Thursday

    Time Temperature Precipitation Wind Pressure Humidity
    00:00 +27°C° 0 mm 3 mps 763 mmHg 60%
    01:00 +27°C° 0 mm 3 mps 763 mmHg 62%
    02:00 +26°C° 0 mm 3 mps 763 mmHg 62%
    03:00 +26°C° 0 mm 3 mps 763 mmHg 63%
    04:00 +25°C° 0 mm 3 mps 763 mmHg 64%
    05:00 +26°C° 0 mm 2 mps 764 mmHg 62%
    06:00 +26°C° 0 mm 2 mps 764 mmHg 61%
    07:00 +26°C° 0 mm 2 mps 765 mmHg 59%
    08:00 +28°C° 0 mm 2 mps 765 mmHg 52%
    09:00 +30°C° 0 mm 2 mps 765 mmHg 45%
    10:00 +32°C° 0 mm 1 mps 765 mmHg 39%
    11:00 +34°C° 0 mm 2 mps 764 mmHg 35%
    12:00 +35°C° 0 mm 2 mps 764 mmHg 31%
    13:00 +36°C° 0 mm 2 mps 764 mmHg 27%
    14:00 +36°C° 0 mm 2 mps 764 mmHg 26%
    15:00 +36°C° 0 mm 2 mps 763 mmHg 25%
    16:00 +36°C° 0 mm 2 mps 763 mmHg 25%
    17:00 +35°C° 0 mm 2 mps 763 mmHg 28%
    18:00 +34°C° 0 mm 2 mps 764 mmHg 31%
    19:00 +32°C° 0 mm 2 mps 764 mmHg 35%
    20:00 +31°C° 0 mm 2 mps 764 mmHg 37%
    21:00 +30°C° 0 mm 2 mps 764 mmHg 40%
    22:00 +29°C° 0 mm 2 mps 764 mmHg 43%
    23:00 +28°C° 0 mm 2 mps 764 mmHg 46%

    Day after tomorrow, 28 June, Friday

    Time Temperature Precipitation Wind Pressure Humidity
    00:00 +28°C° 0 mm 2 mps 764 mmHg 50%
    01:00 +27°C° 0 mm 2 mps 764 mmHg 53%
    02:00 +27°C° 0 mm 2 mps 764 mmHg 55%
    03:00 +26°C° 0 mm 2 mps 765 mmHg 57%
    04:00 +25°C° 0 mm 2 mps 765 mmHg 58%
    05:00 +26°C° 0 mm 2 mps 765 mmHg 56%
    06:00 +27°C° 0 mm 2 mps 765 mmHg 54%
    07:00 +27°C° 0 mm 1 mps 765 mmHg 52%
    08:00 +29°C° 0 mm 1 mps 765 mmHg 44%
    09:00 +31°C° 0 mm 1 mps 765 mmHg 37%
    10:00 +31°C° 0 mm 0 mps 765 mmHg 30%
    11:00 +34°C° 0 mm 1 mps 765 mmHg 27%
    12:00 +35°C° 0 mm 1 mps 765 mmHg 25%
    13:00 +37°C° 0 mm 2 mps 765 mmHg 22%
    14:00 +36°C° 0 mm 2 mps 764 mmHg 24%
    15:00 +36°C° 0 mm 3 mps 764 mmHg 26%
    16:00 +36°C° 0 mm 3 mps 763 mmHg 28%
    17:00 +35°C° 0.1 mm 3 mps 763 mmHg 34%
    18:00 +34°C° 0.1 mm 3 mps 764 mmHg 39%
    19:00 +32°C° 0.1 mm 4 mps 764 mmHg 45%
    20:00 +31°C° 0.1 mm 3 mps 764 mmHg 50%
    21:00 +30°C° 0.1 mm 3 mps 763 mmHg 55%
    22:00 +29°C° 0.1 mm 2 mps 763 mmHg 60%
    23:00 +28°C° 0.2 mm 2 mps 763 mmHg 61%

    29 June, Saturday

    Time Temperature Precipitation Wind Pressure Humidity
    00:00 +28°C° 0.2 mm 2 mps 762 mmHg 62%
    01:00 +28°C° 0.2 mm 2 mps 762 mmHg 63%
    02:00 +27°C° 0.3 mm 2 mps 762 mmHg 64%
    03:00 +27°C° 0.3 mm 2 mps 761 mmHg 65%
    04:00 +27°C° 0.3 mm 2 mps 761 mmHg 67%
    05:00 +27°C° 0 mm 3 mps 761 mmHg 66%
    06:00 +27°C° 0 mm 3 mps 761 mmHg 66%
    07:00 +28°C° 0 mm 3 mps 761 mmHg 66%
    08:00 +29°C° 0 mm 3 mps 760 mmHg 61%
    09:00 +32°C° 0 mm 4 mps 760 mmHg 56%
    10:00 +34°C° 0 mm 4 mps 760 mmHg 51%
    11:00 +34°C° 0 mm 4 mps 760 mmHg 48%
    12:00 +35°C° 0 mm 4 mps 759 mmHg 45%
    13:00 +36°C° 0 mm 4 mps 759 mmHg 42%
    14:00 +36°C° 0 mm 4 mps 759 mmHg 41%
    15:00 +36°C° 0 mm 5 mps 758 mmHg 39%
    16:00 +36°C° 0 mm 5 mps 758 mmHg 37%
    17:00 +35°C° 0 mm 5 mps 758 mmHg 40%
    18:00 +34°C° 0 mm 5 mps 758 mmHg 43%
    19:00 +33°C° 0 mm 5 mps 758 mmHg 46%
    20:00 +32°C° 0 mm 5 mps 758 mmHg 50%
    21:00 +30°C° 0 mm 4 mps 758 mmHg 54%
    22:00 +29°C° 0 mm 4 mps 759 mmHg 58%
    23:00 +28°C° 0 mm 4 mps 758 mmHg 58%

    30 June, Sunday

    Time Temperature Precipitation Wind Pressure Humidity
    00:00 +28°C° 0 mm 4 mps 758 mmHg 59%
    01:00 +27°C° 0 mm 4 mps 758 mmHg 59%
    02:00 +27°C° 0 mm 4 mps 758 mmHg 60%
    03:00 +26°C° 0 mm 4 mps 758 mmHg 61%
    04:00 +26°C° 0 mm 4 mps 758 mmHg 61%
    05:00 +26°C° 0 mm 4 mps 758 mmHg 61%
    06:00 +27°C° 0 mm 4 mps 758 mmHg 60%
    07:00 +27°C° 0 mm 4 mps 758 mmHg 59%
    08:00 +29°C° 0 mm 4 mps 757 mmHg 53%
    09:00 +30°C° 0 mm 5 mps 757 mmHg 46%
    10:00 +33°C° 0 mm 5 mps 757 mmHg 40%
    11:00 +33°C° 0 mm 6 mps 756 mmHg 39%
    12:00 +34°C° 0 mm 6 mps 756 mmHg 38%
    13:00 +34°C° 0 mm 6 mps 755 mmHg 36%
    14:00 +34°C° 0 mm 6 mps 755 mmHg 35%
    15:00 +33°C° 0 mm 6 mps 755 mmHg 34%
    16:00 +33°C° 0 mm 6 mps 754 mmHg 33%
    17:00 +32°C° 0 mm 7 mps 755 mmHg 35%
    18:00 +29°C° 0 mm 7 mps 755 mmHg 38%
    19:00 +28°C° 0 mm 7 mps 755 mmHg 40%
    20:00 +27°C° 0 mm 7 mps 756 mmHg 42%
    21:00 +24°C° 0 mm 6 mps 757 mmHg 44%
    22:00 +23°C° 0 mm 6 mps 757 mmHg 46%
    23:00 +22°C° 0 mm 6 mps 757 mmHg 47%

    1 July, Monday

    Time Temperature Precipitation Wind Pressure Humidity
    00:00 +22°C° 0 mm 5 mps 758 mmHg 49%
    01:00 +21°C° 0 mm 5 mps 758 mmHg 50%
    02:00 +21°C° 0 mm 5 mps 758 mmHg 51%
    03:00 +21°C° 0 mm 5 mps 758 mmHg 52%
    04:00 +20°C° 0 mm 4 mps 758 mmHg 53%
    05:00 +21°C° 0 mm 4 mps 758 mmHg 52%
    06:00 +22°C° 0 mm 4 mps 758 mmHg 51%
    07:00 +22°C° 0 mm 4 mps 759 mmHg 50%
    08:00 +25°C° 0 mm 4 mps 759 mmHg 46%
    09:00 +26°C° 0 mm 4 mps 759 mmHg 43%
    10:00 +28°C° 0 mm 4 mps 759 mmHg 39%
    11:00 +29°C° 0 mm 4 mps 759 mmHg 37%
    12:00 +30°C° 0 mm 3 mps 759 mmHg 34%
    13:00 +31°C° 0 mm 3 mps 758 mmHg 32%
    14:00 +33°C° 0 mm 3 mps 758 mmHg 31%
    15:00 +33°C° 0 mm 3 mps 758 mmHg 31%
    16:00 +33°C° 0 mm 3 mps 758 mmHg 30%
    17:00 +32°C° 0 mm 2 mps 758 mmHg 33%
    18:00 +31°C° 0 mm 2 mps 758 mmHg 36%
    19:00 +30°C° 0 mm 2 mps 758 mmHg 39%
    20:00 +29°C° 0 mm 1 mps 758 mmHg 42%
    21:00 +28°C° 0 mm 1 mps 759 mmHg 44%
    22:00 +27°C° 0 mm 1 mps 759 mmHg 47%
    23:00 +27°C° 0 mm 1 mps 758 mmHg 49%
    Show more